�������l�o���
Date,Time,MP-1(��Sv/h),MP-2(��Sv/h),MP-3(��Sv/h),MP-4(��Sv/h),MP-5(��Sv/h),MP-6(��Sv/h),MP-7(��Sv/h),MP-8(��Sv/h),����,����(m/s),���J
2021/04/24,00:00,0.639,0.953,0.595,1.176,0.833,0.373,0.656,0.614,���k��,1.7,��
2021/04/24,00:10,0.638,0.952,0.596,1.174,0.831,0.372,0.655,0.616,��,1.5,��
2021/04/24,00:20,0.638,0.954,0.594,1.174,0.832,0.374,0.658,0.614,��,2.3,��
2021/04/24,00:30,0.639,0.954,0.596,1.174,0.831,0.372,0.657,0.613,��,3.2,��
2021/04/24,00:40,0.638,0.953,0.592,1.177,0.832,0.374,0.656,0.614,���k��,1.5,��
2021/04/24,00:50,0.637,0.952,0.594,1.174,0.831,0.372,0.657,0.616,���k��,1.5,��
2021/04/24,01:00,0.639,0.955,0.596,1.172,0.833,0.373,0.656,0.612,�k�k��,1.1,��
2021/04/24,01:10,0.638,0.953,0.594,1.175,0.831,0.374,0.655,0.615,�k�k��,1.2,��
2021/04/24,01:20,0.637,0.954,0.593,1.172,0.831,0.373,0.657,0.612,�k�k��,0.6,��
2021/04/24,01:30,0.639,0.955,0.594,1.175,0.831,0.373,0.658,0.614,-,CALM,��
2021/04/24,01:40,0.639,0.952,0.594,1.173,0.831,0.372,0.656,0.614,�k��,0.6,��
2021/04/24,01:50,0.638,0.954,0.595,1.171,0.833,0.373,0.655,0.615,�k�k��,0.6,��
2021/04/24,02:00,0.638,0.953,0.594,1.174,0.829,0.373,0.655,0.614,�k��,1.4,��
2021/04/24,02:10,0.638,0.952,0.597,1.174,0.831,0.373,0.655,0.615,���k��,1.5,��
2021/04/24,02:20,0.638,0.951,0.594,1.175,0.831,0.373,0.656,0.613,�k��,1.4,��
2021/04/24,02:30,0.638,0.955,0.595,1.175,0.832,0.374,0.656,0.614,�k,3.9,��
2021/04/24,02:40,0.637,0.954,0.593,1.173,0.830,0.373,0.657,0.614,�k�k��,4.9,��
2021/04/24,02:50,0.640,0.953,0.595,1.172,0.831,0.375,0.658,0.614,�k,4.2,��
2021/04/24,03:00,0.638,0.954,0.595,1.174,0.831,0.373,0.656,0.613,�k,3.4,��
2021/04/24,03:10,0.638,0.954,0.597,1.173,0.831,0.373,0.657,0.614,�k�k��,3.6,��
2021/04/24,03:20,0.637,0.952,0.595,1.175,0.832,0.374,0.657,0.612,�k�k��,3.6,��
2021/04/24,03:30,0.638,0.953,0.596,1.174,0.833,0.375,0.656,0.614,�k�k��,4.0,��
2021/04/24,03:40,0.638,0.951,0.595,1.172,0.829,0.372,0.658,0.614,�k�k��,4.1,��
2021/04/24,03:50,0.639,0.952,0.594,1.177,0.831,0.373,0.657,0.614,�k��,4.6,��
2021/04/24,04:00,0.637,0.951,0.592,1.174,0.830,0.374,0.656,0.615,�k��,4.6,��
2021/04/24,04:10,0.636,0.953,0.594,1.173,0.831,0.373,0.656,0.613,�k�k��,4.3,��
2021/04/24,04:20,0.636,0.952,0.594,1.174,0.831,0.374,0.656,0.614,�k�k��,3.8,��
2021/04/24,04:30,0.639,0.952,0.595,1.176,0.830,0.373,0.656,0.613,�k��,4.1,��
2021/04/24,04:40,0.638,0.956,0.593,1.173,0.831,0.373,0.655,0.615,�k�k��,4.5,��
2021/04/24,04:50,0.638,0.953,0.594,1.176,0.829,0.374,0.657,0.615,�k�k��,4.8,��
2021/04/24,05:00,0.636,0.952,0.592,1.173,0.829,0.373,0.656,0.614,�k��,5.1,��
2021/04/24,05:10,0.638,0.952,0.593,1.175,0.829,0.373,0.657,0.615,�k��,5.5,��
2021/04/24,05:20,0.638,0.951,0.593,1.174,0.831,0.374,0.657,0.613,���k��,5.7,��
2021/04/24,05:30,0.639,0.952,0.593,1.175,0.831,0.372,0.656,0.614,���k��,4.7,��
2021/04/24,05:40,0.637,0.953,0.594,1.175,0.830,0.373,0.658,0.613,���k��,3.9,��
2021/04/24,05:50,0.638,0.952,0.595,1.177,0.833,0.372,0.657,0.614,�k��,3.7,��
2021/04/24,06:00,0.639,0.951,0.594,1.173,0.831,0.375,0.657,0.614,���k��,3.3,��
2021/04/24,06:10,0.639,0.953,0.594,1.175,0.830,0.373,0.657,0.615,���k��,3.1,��
2021/04/24,06:20,0.639,0.953,0.595,1.176,0.831,0.373,0.657,0.613,��,2.5,��
2021/04/24,06:30,0.639,0.953,0.595,1.176,0.831,0.374,0.659,0.616,��,2.3,��
2021/04/24,06:40,0.640,0.952,0.595,1.171,0.831,0.374,0.659,0.614,���k��,2.0,��
2021/04/24,06:50,0.639,0.951,0.595,1.175,0.832,0.373,0.657,0.614,���k��,1.7,��
2021/04/24,07:00,0.639,0.953,0.595,1.173,0.830,0.374,0.659,0.613,�k��,1.7,��
2021/04/24,07:10,0.638,0.954,0.596,1.172,0.832,0.374,0.659,0.614,�k��,1.7,��
2021/04/24,07:20,0.639,0.955,0.595,1.175,0.833,0.375,0.658,0.615,�k�k��,1.1,��
2021/04/24,07:30,0.642,0.955,0.597,1.174,0.833,0.373,0.661,0.615,�k,0.8,��
2021/04/24,07:40,0.641,0.953,0.595,1.174,0.833,0.375,0.658,0.616,�k�k��,0.6,��
2021/04/24,07:50,0.639,0.952,0.596,1.176,0.833,0.374,0.658,0.617,�k,0.6,��
2021/04/24,08:00,0.641,0.952,0.596,1.175,0.831,0.373,0.659,0.617,�k��,1.7,��
2021/04/24,08:10,0.642,0.953,0.597,1.178,0.831,0.372,0.660,0.616,�쓌,2.3,��
2021/04/24,08:20,0.641,0.952,0.594,1.176,0.832,0.372,0.659,0.615,���쓌,1.4,��
2021/04/24,08:30,0.641,0.953,0.595,1.174,0.832,0.372,0.657,0.615,�쓌,1.9,��
2021/04/24,08:40,0.643,0.951,0.595,1.176,0.830,0.372,0.658,0.614,�쓌,1.7,��
2021/04/24,08:50,0.639,0.953,0.594,1.175,0.830,0.372,0.658,0.612,���쓌,2.3,��
2021/04/24,09:00,0.640,0.953,0.596,1.175,0.832,0.372,0.657,0.614,���쓌,2.3,��
2021/04/24,09:10,0.640,0.953,0.596,1.181,0.830,0.373,0.657,0.613,���쓌,2.2,��
2021/04/24,09:20,0.640,0.952,0.594,1.179,0.832,0.374,0.656,0.612,�쓌,2.3,��
2021/04/24,09:30,0.641,0.953,0.595,1.176,0.833,0.372,0.656,0.612,���쓌,3.0,��
2021/04/24,09:40,0.640,0.952,0.596,1.174,0.834,0.373,0.658,0.613,���쓌,3.6,��
2021/04/24,09:50,0.639,0.954,0.597,1.176,0.831,0.373,0.657,0.613,�쓌,3.1,��
2021/04/24,10:00,0.642,0.955,0.594,1.177,0.831,0.373,0.655,0.612,�쓌,3.4,��
2021/04/24,10:10,0.640,0.954,0.595,1.176,0.831,0.373,0.657,0.614,���쓌,3.2,��
2021/04/24,10:20,0.641,0.951,0.597,1.177,0.830,0.373,0.657,0.613,�쓌,4.1,��
2021/04/24,10:30,0.640,0.952,0.595,1.176,0.831,0.375,0.658,0.614,���쓌,3.0,��
2021/04/24,10:40,0.639,0.955,0.596,1.177,0.833,0.373,0.658,0.614,�쓌,3.4,��
2021/04/24,10:50,0.640,0.956,0.596,1.178,0.832,0.374,0.657,0.614,�쓌,4.1,��
2021/04/24,11:00,0.639,0.954,0.594,1.178,0.833,0.373,0.658,0.614,��쓌,3.8,��
2021/04/24,11:10,0.640,0.953,0.594,1.177,0.831,0.374,0.656,0.613,��쓌,4.7,��
2021/04/24,11:20,0.641,0.956,0.595,1.178,0.834,0.373,0.657,0.613,��쓌,5.3,��
2021/04/24,11:30,0.641,0.956,0.597,1.176,0.834,0.376,0.657,0.615,��쓌,5.6,��
2021/04/24,11:40,0.642,0.959,0.595,1.175,0.834,0.374,0.659,0.614,��쓌,5.8,��
2021/04/24,11:50,0.641,0.955,0.596,1.176,0.832,0.374,0.657,0.615,��쓌,5.5,��
2021/04/24,12:00,0.642,0.956,0.597,1.176,0.834,0.374,0.657,0.614,�쓌,5.2,��
2021/04/24,12:10,0.642,0.953,0.596,1.176,0.834,0.374,0.658,0.614,��쓌,4.5,��
2021/04/24,12:20,0.641,0.956,0.595,1.174,0.834,0.375,0.659,0.614,��쓌,5.4,��
2021/04/24,12:30,0.642,0.956,0.597,1.172,0.835,0.374,0.658,0.614,�쓌,5.4,��
2021/04/24,12:40,0.644,0.955,0.597,1.177,0.834,0.374,0.659,0.613,��쓌,5.5,��
2021/04/24,12:50,0.639,0.956,0.596,1.179,0.835,0.374,0.659,0.615,��쓌,6.4,��
2021/04/24,13:00,0.642,0.956,0.596,1.176,0.833,0.375,0.659,0.614,��쓌,7.1,��
2021/04/24,13:10,0.641,0.955,0.595,1.180,0.835,0.376,0.658,0.615,��쓌,6.7,��
2021/04/24,13:20,0.642,0.956,0.598,1.179,0.834,0.375,0.659,0.615,��쓌,6.3,��
2021/04/24,13:30,0.643,0.954,0.596,1.177,0.834,0.375,0.657,0.614,��쓌,6.6,��
2021/04/24,13:40,0.642,0.956,0.596,1.179,0.835,0.374,0.659,0.613,��쓌,7.1,��
2021/04/24,13:50,0.641,0.957,0.596,1.178,0.833,0.375,0.659,0.614,��쓌,6.7,��
2021/04/24,14:00,0.643,0.954,0.596,1.178,0.836,0.376,0.658,0.614,��쓌,7.5,��
2021/04/24,14:10,0.642,0.955,0.595,1.177,0.834,0.375,0.660,0.614,��쓌,7.4,��
2021/04/24,14:20,0.644,0.957,0.596,1.178,0.834,0.376,0.659,0.615,��쓌,7.8,��
2021/04/24,14:30,0.644,0.955,0.595,1.180,0.833,0.376,0.658,0.615,��쓌,6.9,��
2021/04/24,14:40,0.643,0.957,0.597,1.179,0.836,0.376,0.657,0.615,��쓌,7.0,��
2021/04/24,14:50,0.643,0.957,0.597,1.177,0.835,0.375,0.658,0.614,��쓌,7.0,��
2021/04/24,15:00,0.642,0.959,0.597,1.177,0.837,0.375,0.658,0.615,��쓌,7.2,��
2021/04/24,15:10,0.641,0.957,0.596,1.177,0.834,0.375,0.659,0.615,��쓌,6.7,��
2021/04/24,15:20,0.642,0.956,0.596,1.175,0.836,0.376,0.658,0.615,��쓌,6.1,��
2021/04/24,15:30,0.643,0.955,0.598,1.177,0.836,0.375,0.659,0.614,��쓌,6.3,��
2021/04/24,15:40,0.644,0.957,0.595,1.178,0.835,0.376,0.659,0.614,��쓌,7.1,��
2021/04/24,15:50,0.644,0.959,0.595,1.179,0.837,0.375,0.660,0.615,��쓌,7.1,��
2021/04/24,16:00,0.642,0.959,0.597,1.179,0.835,0.376,0.660,0.614,��쓌,7.9,��
2021/04/24,16:10,0.642,0.954,0.597,1.178,0.835,0.376,0.659,0.615,��쓌,6.8,��
2021/04/24,16:20,0.643,0.959,0.598,1.178,0.836,0.378,0.660,0.614,��,6.7,��
2021/04/24,16:30,0.642,0.958,0.596,1.177,0.833,0.377,0.659,0.615,��쓌,8.6,��
2021/04/24,16:40,0.642,0.956,0.597,1.179,0.837,0.376,0.659,0.614,��,8.0,��
2021/04/24,16:50,0.640,0.958,0.596,1.178,0.837,0.376,0.660,0.616,��,7.8,��
2021/04/24,17:00,0.644,0.959,0.595,1.180,0.835,0.374,0.659,0.613,��,8.6,��
2021/04/24,17:10,0.641,0.958,0.596,1.178,0.835,0.378,0.659,0.614,��,7.8,��
2021/04/24,17:20,0.643,0.958,0.597,1.179,0.835,0.377,0.660,0.614,��,7.9,��
2021/04/24,17:30,0.643,0.956,0.596,1.181,0.836,0.376,0.659,0.614,��,7.6,��
2021/04/24,17:40,0.644,0.958,0.596,1.178,0.838,0.376,0.660,0.617,��,7.5,��
2021/04/24,17:50,0.643,0.957,0.597,1.179,0.834,0.378,0.659,0.616,��,8.1,��
2021/04/24,18:00,0.644,0.959,0.597,1.178,0.835,0.379,0.658,0.617,��,7.9,��
2021/04/24,18:10,0.643,0.961,0.599,1.180,0.834,0.378,0.660,0.618,��,8.8,��
2021/04/24,18:20,0.645,0.960,0.600,1.181,0.835,0.377,0.659,0.616,��,8.9,��
2021/04/24,18:30,0.646,0.961,0.601,1.182,0.836,0.377,0.660,0.616,��,8.8,��
2021/04/24,18:40,0.644,0.960,0.600,1.178,0.834,0.377,0.658,0.618,��,9.4,��
2021/04/24,18:50,0.645,0.960,0.599,1.179,0.835,0.378,0.662,0.616,��,8.4,��
2021/04/24,19:00,0.645,0.959,0.599,1.178,0.836,0.378,0.661,0.618,��,8.0,��
2021/04/24,19:10,0.645,0.960,0.599,1.180,0.838,0.378,0.660,0.618,��,7.2,��
2021/04/24,19:20,0.644,0.960,0.598,1.179,0.838,0.379,0.660,0.617,��,7.8,��
2021/04/24,19:30,0.645,0.960,0.599,1.179,0.837,0.376,0.662,0.618,��,7.9,��
2021/04/24,19:40,0.646,0.960,0.600,1.179,0.838,0.376,0.662,0.618,��,7.4,��
2021/04/24,19:50,0.645,0.960,0.599,1.178,0.838,0.377,0.660,0.619,��,7.2,��
2021/04/24,20:00,0.645,0.962,0.598,1.180,0.838,0.377,0.661,0.617,��,7.7,��
2021/04/24,20:10,0.646,0.962,0.600,1.179,0.840,0.376,0.661,0.617,��,8.0,��
2021/04/24,20:20,0.643,0.957,0.599,1.179,0.838,0.377,0.663,0.617,��,7.6,��
2021/04/24,20:30,0.644,0.960,0.600,1.179,0.838,0.377,0.661,0.618,��,8.1,��
2021/04/24,20:40,0.645,0.961,0.599,1.175,0.838,0.378,0.661,0.617,��,8.2,��
2021/04/24,20:50,0.645,0.962,0.600,1.181,0.837,0.379,0.660,0.615,��,8.0,��
2021/04/24,21:00,0.644,0.961,0.599,1.179,0.837,0.377,0.660,0.618,��,8.3,��
2021/04/24,21:10,0.646,0.958,0.600,1.180,0.836,0.377,0.660,0.616,��,7.9,��
2021/04/24,21:20,0.645,0.963,0.598,1.179,0.837,0.376,0.660,0.616,��,6.9,��
2021/04/24,21:30,0.645,0.958,0.601,1.177,0.838,0.378,0.661,0.616,��,7.7,��
2021/04/24,21:40,0.644,0.960,0.597,1.179,0.836,0.377,0.662,0.616,��,7.0,��
2021/04/24,21:50,0.645,0.960,0.600,1.177,0.836,0.379,0.662,0.617,��,6.8,��
2021/04/24,22:00,0.645,0.958,0.598,1.179,0.837,0.377,0.660,0.617,��,6.8,��
2021/04/24,22:10,0.643,0.960,0.600,1.179,0.838,0.377,0.664,0.617,��,6.5,��
2021/04/24,22:20,0.646,0.960,0.598,1.179,0.839,0.376,0.661,0.616,��,7.0,��
2021/04/24,22:30,0.645,0.960,0.599,1.178,0.838,0.377,0.661,0.617,��,6.1,��
2021/04/24,22:40,0.645,0.962,0.598,1.179,0.838,0.376,0.661,0.618,��,5.8,��
2021/04/24,22:50,0.646,0.962,0.598,1.179,0.839,0.377,0.662,0.617,��,6.5,��
2021/04/24,23:00,0.645,0.958,0.600,1.177,0.838,0.376,0.661,0.617,��,6.4,��
2021/04/24,23:10,0.644,0.961,0.599,1.178,0.837,0.377,0.661,0.618,��,7.0,��
2021/04/24,23:20,0.644,0.960,0.599,1.179,0.838,0.375,0.660,0.618,��,6.5,��
2021/04/24,23:30,0.646,0.962,0.599,1.182,0.838,0.376,0.662,0.617,��쐼,6.1,��
2021/04/24,23:40,0.646,0.961,0.600,1.180,0.836,0.377,0.662,0.618,��쐼,6.1,��
2021/04/24,23:50,0.646,0.961,0.599,1.179,0.837,0.378,0.662,0.618,��,5.8,��
